Other Public Products
Issued by NWS Charleston, SC

Current Version | Previous Version | Text Only | Print | Product List | Glossary Off
Versions: 1 2 3 4 5 6 7 8 9 10 11 12 13 14 15 16 17 18 19 20 21 22 23 24 25 26 27 28 29 30 31 32 33 34 35 36 37 38 39 40 41 42 43 44 45 46 47 48 49 50

000
FPUS82 KCHS 211227
OPUCHS

TEST...KCHS/KSAV Gateway Observations...TEST
National Weather Service Charleston SC
700 AM EST SAT JAN 21 2017

NOTE: "fair" indicates few or no clouds below 12,000 feet with no
significant weather and/or obstructions to visibility.

SCZ050-WAZ558-NCZ071-TXZ119-213-PAZ071-DCZ001-FLZ074-172-MI076-
NYZ176-178-MAZ016-IL014-TNZ027-NJZ106-GAZ044-MD014-211300-
...Gateway Observations for Charleston International...

CITY           SKY/WX    TMP DP  RH WIND       PRES   REMARKS
Chas Airport   MOCLDY    64  62  93 SW6       29.88S
6HR MIN TEMP:  63; 6HR MAX TEMP:  66; 6HR PCP: TRACE;

Seattle        CLOUDY    41  39  93 CALM      29.26R
6HR MIN TEMP:  41; 6HR MAX TEMP:  45; 6HR PCP: TRACE;

Charlotte      FOG       53  52  96 NE3       29.90R VSB 1/4
6HR MIN TEMP:  53; 6HR MAX TEMP:  54;

Dallas DFW     PTCLDY    51  49  92 S6        29.54R
6HR MIN TEMP:  48; 6HR MAX TEMP:  58;

Dallas Love    MOCLDY    53  50  89 S10       29.56R
6HR MIN TEMP:  49; 6HR MAX TEMP:  59;

Philladelphia  CLOUDY    43  42  97 W5        29.92S FOG
6HR MIN TEMP:  42; 6HR MAX TEMP:  43;

Wash National  DRIZZLE   48  48 100 S3        29.92S FOG
6HR MIN TEMP:  47; 6HR MAX TEMP:  48; 6HR PCP: TRACE;

Baltimore      DRZL/FOG  46  46 100 CALM      29.91R VSB 3/4
6HR MIN TEMP:  44; 6HR MAX TEMP:  46; 6HR PCP: TRACE;

Miami          PTCLDY    66  63  90 CALM      29.99R
6HR MIN TEMP:  64; 6HR MAX TEMP:  70;

Detroit        CLOUDY    42  42 100 CALM      29.72R FOG
6HR MIN TEMP:  40; 6HR MAX TEMP:  42; 6HR PCP: TRACE;

Newark         CLOUDY    43  41  93 SW8       29.89S FOG
6HR MIN TEMP:  42; 6HR MAX TEMP:  43; 6HR PCP: TRACE;

Laguardia      CLOUDY    45  41  86 W3        29.88S
6HR MIN TEMP:  44; 6HR MAX TEMP:  46;

J F K          CLOUDY    43  43 100 SW9       29.90S FOG
6HR MIN TEMP:  42; 6HR MAX TEMP:  43;

Boston Logan   CLOUDY    39  38  96 S6        29.85R WCI  35
6HR MIN TEMP:  37; 6HR MAX TEMP:  39;

Ft. Lauderdale PTCLDY    65  63  93 CALM      29.98S
6HR MIN TEMP:  64; 6HR MAX TEMP:  69;

Chicago O`Hare CLOUDY    47  47 100 SE7       29.53S FOG
6HR MIN TEMP:  42; 6HR MAX TEMP:  48; 6HR PCP: TRACE;

Chicago Midway CLOUDY    48  46  93 SE7       29.54F FOG
6HR MIN TEMP:  46; 6HR MAX TEMP:  48; 6HR PCP: TRACE;

Houston Bush   FOG       63  63 100 S5        29.63R VSB 3/4
6HR MIN TEMP:  63; 6HR MAX TEMP:  64; 6HR PCP:  0.11;

Houston Hobby  FOG       64  64 100 SE5       29.62R VSB 1/8
6HR MIN TEMP:  64; 6HR MAX TEMP:  67; 6HR PCP: TRACE;

Nashville      MOCLDY    57  53  86 SE6       29.72S
6HR MIN TEMP:  56; 6HR MAX TEMP:  59;

Atlanta        FOG       63  63 100 E3        29.79F VSB 1/4
6HR MIN TEMP:  62; 6HR MAX TEMP:  63; 6HR PCP: TRACE;


$$

GAZ044-118-TXZ119-213-NCZ071-DCZ001-MDZ014-506-PAZ021-071-NJZ106-
NYZ176-178-MAZ106-OHZ011-021-055-MIZ076-KYZ091-ILZ014-INZ047-
MNZ060-211300-
...Gateway Observations for Savannah International...

CITY           SKY/WX    TMP DP  RH WIND       PRES   REMARKS
Savannah Arpt  CLOUDY    66  63  90 S5        29.88S
6HR MIN TEMP:  63; 6HR MAX TEMP:  66;

Atlanta        FOG       63  63 100 E3        29.79F VSB 1/4
6HR MIN TEMP:  62; 6HR MAX TEMP:  63; 6HR PCP: TRACE;

Charlotte      FOG       53  52  96 NE3       29.90R VSB 1/4
6HR MIN TEMP:  53; 6HR MAX TEMP:  54;

Dallas DFW     PTCLDY    51  49  92 S6        29.54R
6HR MIN TEMP:  48; 6HR MAX TEMP:  58;

Houston Bush   FOG       63  63 100 S5        29.63R VSB 3/4
6HR MIN TEMP:  63; 6HR MAX TEMP:  64; 6HR PCP:  0.11;

Wash National  DRIZZLE   48  48 100 S3        29.92S FOG
6HR MIN TEMP:  47; 6HR MAX TEMP:  48; 6HR PCP: TRACE;

Wash Dulles    FOG       46  45  96 S5        29.91R VSB 1/8
6HR MIN TEMP:  46; 6HR MAX TEMP:  48;

Baltimore      DRZL/FOG  46  46 100 CALM      29.91R VSB 3/4
6HR MIN TEMP:  44; 6HR MAX TEMP:  46; 6HR PCP: TRACE;

Philadelphia   CLOUDY    43  42  97 W5        29.92S FOG
6HR MIN TEMP:  42; 6HR MAX TEMP:  43;

Newark         CLOUDY    43  41  93 SW8       29.89S FOG
6HR MIN TEMP:  42; 6HR MAX TEMP:  43; 6HR PCP: TRACE;

Laguardia      CLOUDY    45  41  86 W3        29.88S
6HR MIN TEMP:  44; 6HR MAX TEMP:  46;

J F K          CLOUDY    43  43 100 SW9       29.90S FOG
6HR MIN TEMP:  42; 6HR MAX TEMP:  43;

Boston         CLOUDY    39  38  96 S6        29.85R WCI  35
6HR MIN TEMP:  37; 6HR MAX TEMP:  39;

Pittsburg      FOG       43  43 100 SE3       29.80F VSB 1/2
6HR MIN TEMP:  38; 6HR MAX TEMP:  46;

Akron          MOCLDY    46  44  93 SE7       29.77S FOG
6HR MIN TEMP:  43; 6HR MAX TEMP:  48;

Cleveland      MOCLDY    49  44  83 S9        29.76F
6HR MIN TEMP:  43; 6HR MAX TEMP:  50;

Cincinnati     PTCLDY    50  48  93 S9        29.72R
6HR MIN TEMP:  48; 6HR MAX TEMP:  51;

Columbus         N/A     42  42 100 CALM      29.75R
Detroit        CLOUDY    42  42 100 CALM      29.72R FOG
6HR MIN TEMP:  40; 6HR MAX TEMP:  42; 6HR PCP: TRACE;

Chicago O`Hare CLOUDY    47  47 100 SE7       29.53S FOG
6HR MIN TEMP:  42; 6HR MAX TEMP:  48; 6HR PCP: TRACE;

Minneapolis    CLOUDY    35  34  96 E8        29.44F FOG     WCI  29
6HR MIN TEMP:  35; 6HR MAX TEMP:  36; 6HR PCP:  0.01;

Indianapolis   PTCLDY    48  47  96 SE7       29.66R
6HR MIN TEMP:  47; 6HR MAX TEMP:  52;


$$




USA.gov is the U.S. government's official web portal to all federal, state and local government web resources and services.